Showing default

OPS 9344 (IDSCS 22), 3287

Orbit data source: Space-Track

OPS 9344 (IDSCS 22), 3287 is a payload satellite owned by SAMSO (US) in GEO that was launched on Thu, 13 Jun 1968 UTC via a TITAN IIIC launch vehicle from the Air Force Eastern Test Range (AFETR). Payload-class satellites include a variety of spacecraft equipped with specific instruments for various scientific and technological missions. These include communications satellites like Starlink; space stations such as the ISS; scientific satellites like the Hubble; Earth observation satellites from companies like Planet Labs, Umbra, and HawkEye 360; GPS; miniature CubeSats for education and research; and military/defense satellites.

Not visible in the next 10 days
Identifier
3287, 1968-050D
Orbit
GEO
Country
Flag of USUS
Related business
Manufacturer
Philco-Ford
Mission
Non-operational spacecraft
Bus & Motor
IDCSP, Unknown motor
Mass
45 kg wet, 45 kg dry
Launch date (UTC)
1968-06-13 (58 years ago)
Launch vehicle
TITAN IIIC
Launch site
Air Force Eastern Test Range (AFETR)
Object type
Payload
Rocket body
Debris
Shape & HBR
Unknown
Radar Cross Section
Medium (>0.1 m² and <1 m²)

Expand to show TLE details & history
Last TLE update: 4 days ago

TLE from 4 days ago
0 OPS 9344 (IDSCS 22)
1 03287U 68050D   26194.41433692 -.00000082  00000-0  00000-0 0  9994
2 03287   7.2377  52.0142 0025688 147.2079 203.5091  1.07640097227545
Epoch: 2026-07-13T09:56Z
TLE epoch observation values (Epoch: 2026-07-13T09:56:38.709Z)
Latitude
-1.18221°
Longitude
-37.76252°
Altitude
33,933.659 km
Speed
3.141 km/s
True Right ascension
02h 50m 47s
True Declination
-1° 10' 51"
Sunlit
Object was in daylight at epoch
Visualization orbit readout
Latitude
Unknown
Longitude
Unknown
Altitude
Unknown
Speed
Unknown
Apparent Right ascension
Unknown
Apparent Declination
Unknown
Sunlit
N/A
Visualization observer readout
Local Sidereal Time
21:47:01
Azimuth
Unknown
Elevation
Unknown
Doppler factor
Unknown
Orbital elements
Apogee altitude
33,944.146 km
Perigee altitude
33,737.517 km
Semi-major axis
40,218.969 km
Eccentricity
0.00257
Inclination
7.2377°
RAAN
52.0142°
Arg. of periapsis
147.2079°
True anomaly
203.39203°
Mean anomaly
203.5091°
Eccentric anomaly
203.45053°
Mean motion
0.26909 °/min
Orbital period
1,337.84 mins
BSTAR
0
Loading maneuver chart data...
Computing Atmospheric mass density...
Loading historical data...
Loading historical data...
Loading historical data...
Loading historical data...
Loading historical data...
Loading historical data...
Loading historical data...

Documentation

Showing up to 5 results
|